When you browse on this site, cookies collect data to enhance your experience and personalize the content and advertising you see.
Visit our Privacy Policy to learn more. By continuing to use the site, you agree to this use of cookies and data.
  • In Hungary
  • List of Countries
  • For 7 days
  • Water Temperature
  • Weather Map
  • News
  • Weather Widgets
  • user-avatar
    Login

    Hourly Weather Boksycka

    Today, 15 September, Sunday

    Time Temperature Precipitation Wind Pressure Humidity
    00:00 +11°C° 0 mm 1 mps 753 mmHg 70%
    01:00 +10°C° 0 mm 1 mps 753 mmHg 71%
    02:00 +10°C° 0 mm 1 mps 752 mmHg 72%
    03:00 +10°C° 0 mm 1 mps 752 mmHg 72%
    04:00 +10°C° 0 mm 1 mps 752 mmHg 73%
    05:00 +10°C° 0 mm 2 mps 751 mmHg 71%
    06:00 +10°C° 0 mm 2 mps 751 mmHg 70%
    07:00 +11°C° 0 mm 3 mps 751 mmHg 68%
    08:00 +13°C° 0 mm 3 mps 750 mmHg 63%
    09:00 +15°C° 0 mm 4 mps 750 mmHg 58%
    10:00 +17°C° 0 mm 5 mps 749 mmHg 53%
    11:00 +19°C° 0 mm 5 mps 749 mmHg 50%
    12:00 +20°C° 0 mm 5 mps 748 mmHg 47%
    13:00 +21°C° 0 mm 5 mps 748 mmHg 44%
    14:00 +20°C° 0 mm 5 mps 747 mmHg 46%
    15:00 +20°C° 0 mm 4 mps 746 mmHg 49%
    16:00 +20°C° 0 mm 4 mps 746 mmHg 51%
    17:00 +19°C° 0 mm 4 mps 745 mmHg 56%
    18:00 +18°C° 0 mm 4 mps 745 mmHg 61%
    19:00 +17°C° 0 mm 4 mps 745 mmHg 66%
    20:00 +17°C° 0 mm 4 mps 745 mmHg 69%
    21:00 +15°C° 0 mm 4 mps 745 mmHg 71%
    22:00 +15°C° 0 mm 4 mps 744 mmHg 74%
    23:00 +15°C° 0 mm 4 mps 744 mmHg 76%

    Tomorrow, 16 September, Monday

    Time Temperature Precipitation Wind Pressure Humidity
    00:00 +14°C° 0 mm 4 mps 744 mmHg 79%
    01:00 +14°C° 0 mm 4 mps 744 mmHg 81%
    02:00 +13°C° 0 mm 4 mps 744 mmHg 79%
    03:00 +13°C° 0 mm 4 mps 744 mmHg 76%
    04:00 +13°C° 0 mm 4 mps 744 mmHg 74%
    05:00 +14°C° 0 mm 4 mps 744 mmHg 71%
    06:00 +14°C° 0 mm 4 mps 744 mmHg 68%
    07:00 +14°C° 0 mm 4 mps 744 mmHg 65%
    08:00 +15°C° 0 mm 5 mps 744 mmHg 64%
    09:00 +16°C° 0 mm 5 mps 744 mmHg 63%
    10:00 +17°C° 0 mm 5 mps 744 mmHg 63%
    11:00 +16°C° 0 mm 5 mps 744 mmHg 62%
    12:00 +16°C° 0 mm 5 mps 743 mmHg 61%
    13:00 +15°C° 0 mm 4 mps 743 mmHg 60%
    14:00 +15°C° 0 mm 4 mps 743 mmHg 61%
    15:00 +14°C° 0 mm 4 mps 743 mmHg 62%
    16:00 +14°C° 0 mm 4 mps 743 mmHg 63%
    17:00 +13°C° 0 mm 4 mps 742 mmHg 66%
    18:00 +13°C° 0 mm 3 mps 742 mmHg 68%
    19:00 +13°C° 0 mm 3 mps 742 mmHg 71%
    20:00 +12°C° 0.2 mm 3 mps 742 mmHg 76%
    21:00 +12°C° 0.2 mm 3 mps 741 mmHg 81%
    22:00 +13°C° 0.2 mm 2 mps 741 mmHg 86%
    23:00 +11°C° 0.8 mm 3 mps 741 mmHg 88%

    Day after tomorrow, 17 September, Tuesday

    Time Temperature Precipitation Wind Pressure Humidity
    00:00 +11°C° 0.8 mm 3 mps 741 mmHg 90%
    01:00 +11°C° 0.8 mm 3 mps 741 mmHg 92%
    02:00 +11°C° 0.1 mm 3 mps 741 mmHg 92%
    03:00 +11°C° 0.1 mm 3 mps 741 mmHg 91%
    04:00 +10°C° 0.1 mm 3 mps 741 mmHg 91%
    05:00 +10°C° 0 mm 4 mps 741 mmHg 86%
    06:00 +10°C° 0 mm 4 mps 741 mmHg 82%
    07:00 +9°C° 0 mm 5 mps 741 mmHg 77%
    08:00 +10°C° 0 mm 5 mps 741 mmHg 71%
    09:00 +11°C° 0 mm 6 mps 741 mmHg 65%
    10:00 +13°C° 0 mm 6 mps 741 mmHg 58%
    11:00 +14°C° 0 mm 6 mps 741 mmHg 57%
    12:00 +14°C° 0 mm 7 mps 740 mmHg 56%
    13:00 +14°C° 0 mm 7 mps 740 mmHg 55%
    14:00 +14°C° 0 mm 7 mps 739 mmHg 56%
    15:00 +14°C° 0 mm 7 mps 739 mmHg 56%
    16:00 +12°C° 0 mm 7 mps 739 mmHg 57%
    17:00 +11°C° 0.1 mm 6 mps 739 mmHg 63%
    18:00 +10°C° 0.1 mm 6 mps 739 mmHg 69%
    19:00 +9°C° 0.1 mm 5 mps 739 mmHg 75%
    20:00 +9°C° 0.4 mm 5 mps 739 mmHg 77%
    21:00 +8°C° 0.4 mm 5 mps 739 mmHg 79%
    22:00 +8°C° 0.4 mm 5 mps 739 mmHg 80%
    23:00 +7°C° 0 mm 6 mps 739 mmHg 81%

    18 September, Wednesday

    Time Temperature Precipitation Wind Pressure Humidity
    00:00 +7°C° 0 mm 6 mps 739 mmHg 81%
    01:00 +5°C° 0 mm 6 mps 739 mmHg 82%
    02:00 +5°C° 0 mm 6 mps 740 mmHg 82%
    03:00 +4°C° 0 mm 7 mps 740 mmHg 83%
    04:00 +4°C° 0 mm 7 mps 740 mmHg 83%
    05:00 +5°C° 0 mm 7 mps 741 mmHg 81%
    06:00 +5°C° 0 mm 8 mps 741 mmHg 79%
    07:00 +5°C° 0 mm 8 mps 742 mmHg 76%
    08:00 +6°C° 0 mm 8 mps 742 mmHg 72%
    09:00 +7°C° 0 mm 8 mps 743 mmHg 67%
    10:00 +9°C° 0 mm 7 mps 743 mmHg 63%
    11:00 +10°C° 0 mm 7 mps 744 mmHg 61%
    12:00 +10°C° 0 mm 7 mps 744 mmHg 60%
    13:00 +10°C° 0 mm 7 mps 744 mmHg 59%
    14:00 +10°C° 0 mm 7 mps 744 mmHg 58%
    15:00 +11°C° 0 mm 6 mps 744 mmHg 57%
    16:00 +11°C° 0 mm 6 mps 744 mmHg 55%
    17:00 +10°C° 0 mm 5 mps 744 mmHg 62%
    18:00 +9°C° 0 mm 5 mps 745 mmHg 69%
    19:00 +7°C° 0 mm 4 mps 745 mmHg 75%
    20:00 +8°C° 0 mm 3 mps 745 mmHg 78%
    21:00 +7°C° 0 mm 3 mps 746 mmHg 81%
    22:00 +7°C° 0 mm 3 mps 746 mmHg 84%
    23:00 +5°C° 0 mm 3 mps 746 mmHg 86%

    19 September, Thursday

    Time Temperature Precipitation Wind Pressure Humidity
    00:00 +5°C° 0 mm 3 mps 746 mmHg 87%
    01:00 +5°C° 0 mm 3 mps 746 mmHg 89%
    02:00 +4°C° 0 mm 3 mps 747 mmHg 88%
    03:00 +4°C° 0 mm 3 mps 747 mmHg 88%
    04:00 +4°C° 0 mm 3 mps 747 mmHg 88%
    05:00 +5°C° 0 mm 3 mps 747 mmHg 83%
    06:00 +6°C° 0 mm 4 mps 747 mmHg 78%
    07:00 +6°C° 0 mm 4 mps 747 mmHg 74%
    08:00 +8°C° 0 mm 4 mps 748 mmHg 67%
    09:00 +10°C° 0 mm 5 mps 748 mmHg 60%
    10:00 +13°C° 0 mm 5 mps 748 mmHg 53%
    11:00 +13°C° 0.2 mm 5 mps 748 mmHg 52%
    12:00 +14°C° 0.2 mm 5 mps 748 mmHg 51%
    13:00 +14°C° 0.2 mm 5 mps 747 mmHg 49%
    14:00 +14°C° 0.2 mm 5 mps 747 mmHg 52%
    15:00 +13°C° 0.2 mm 5 mps 747 mmHg 55%
    16:00 +13°C° 0.2 mm 5 mps 747 mmHg 58%
    17:00 +11°C° 0.1 mm 4 mps 747 mmHg 65%
    18:00 +10°C° 0.1 mm 3 mps 748 mmHg 72%
    19:00 +8°C° 0.1 mm 3 mps 748 mmHg 78%
    20:00 +8°C° 0 mm 3 mps 749 mmHg 79%
    21:00 +7°C° 0 mm 3 mps 749 mmHg 80%
    22:00 +7°C° 0 mm 3 mps 749 mmHg 81%
    23:00 +5°C° 0 mm 3 mps 749 mmHg 80%

    20 September, Friday

    Time Temperature Precipitation Wind Pressure Humidity
    00:00 +4°C° 0 mm 3 mps 750 mmHg 80%
    01:00 +4°C° 0 mm 3 mps 750 mmHg 80%
    02:00 +3°C° 0 mm 3 mps 750 mmHg 79%
    03:00 +3°C° 0 mm 4 mps 750 mmHg 79%
    04:00 +3°C° 0 mm 4 mps 750 mmHg 78%
    05:00 +4°C° 0 mm 4 mps 750 mmHg 77%
    06:00 +3°C° 0 mm 5 mps 751 mmHg 76%
    07:00 +5°C° 0 mm 5 mps 751 mmHg 74%
    08:00 +7°C° 0 mm 5 mps 751 mmHg 67%
    09:00 +8°C° 0 mm 5 mps 752 mmHg 60%
    10:00 +10°C° 0 mm 5 mps 752 mmHg 53%
    11:00 +10°C° 0 mm 5 mps 752 mmHg 50%
    12:00 +12°C° 0 mm 5 mps 751 mmHg 47%
    13:00 +13°C° 0 mm 5 mps 751 mmHg 45%
    14:00 +12°C° 0 mm 5 mps 751 mmHg 45%
    15:00 +12°C° 0 mm 5 mps 751 mmHg 45%
    16:00 +12°C° 0 mm 4 mps 751 mmHg 45%
    17:00 +11°C° 0 mm 4 mps 751 mmHg 50%
    18:00 +9°C° 0 mm 3 mps 751 mmHg 54%
    19:00 +8°C° 0 mm 2 mps 752 mmHg 59%
    20:00 +7°C° 0 mm 2 mps 752 mmHg 61%
    21:00 +7°C° 0 mm 2 mps 752 mmHg 63%
    22:00 +6°C° 0 mm 2 mps 752 mmHg 65%
    23:00 +6°C° 0 mm 2 mps 752 mmHg 65%
    Show more